Notices

What's New in latest Release from April 7th, 2021:

- Updated Glossary, including Speed of Maximum Gust, and Total Hourly Precipitation

- Updated national and regional climate services offices contacts and prices information

- Addition of station inventory lists for 1981-2010, 1971-2000, and 1961-1990 Normals.

If you haven't already, please take our survey and provide feedback about our website: https://eccc.sondage-survey.ca/f/LanguageSelection.aspx?s=442ca660-fcf1-47c0-95a9-59707d6fd709

Hourly Data Report for May 22, 2020

TRENTON A
ONTARIO
Current Station Operator: DND

44°07'00.000" N
77°32'00.000" W
86.30 m
6158875
71621
YTR

Download Data

Hourly Data (May 2020)
Hourly Data Report for May 22, 2020
TIME
LST
Temp Definition
°C
Dew Point Definition
°C
Rel Hum Definition
%
Precip. Amount Definition
mm

Wind Dir Definition
10's deg

Wind Spd Definition
km/h
Visibility Definition
km
Stn Press Definition
kPa
Hmdx Definition


Wind Chill Definition


Weather Definition


00:00 9.5 0.9 55     0 24.1 101.06     Clear
01:00 8.2 1.3 62   35 4 24.1 101.03     Clear
02:00 8.5 1.4 61   21 5 24.1 101.03     Clear
03:00 6.5 1.3 69   1 4 24.1 100.98     Clear
04:00 6.4 1.6 71     0 24.1 100.99     Clear
05:00 5.9 1.3 72   36 4 24.1 101.00     Clear
06:00 9.1 3.7 69     0 24.1 101.00     Clear
07:00 14.4 3.9 49     0 24.1 100.99     Clear
08:00 18.1 4.5 41   19 4 24.1 101.00     Clear
09:00 20.1 0.4 27   19 9 24.1 100.96     Clear
10:00 19.8 2.6 32   23 11 24.1 100.93     Clear
11:00 21.2 4.4 33   22 8 24.1 100.87     Clear
12:00 20.9 7.5 42   23 15 24.1 100.81     Clear
13:00 20.9 9.8 49   22 17 24.1 100.74     Clear
14:00 21.9 10.0 47   22 13 24.1 100.70     Mainly Clear
15:00 21.3 9.4 47   22 17 24.1 100.65     Mainly Clear
16:00 23.3 9.5 42   22 9 24.1 100.58     Mainly Clear
17:00 23.7 9.6 41   23 9 24.1 100.53 25   Mainly Clear
18:00 22.4 8.8 42   22 8 24.1 100.54     Mainly Clear
19:00 21.4 8.3 43   19 4 24.1 100.51     Mainly Clear
20:00 18.9 8.6 51     0 24.1 100.50     Mainly Clear
21:00 17.1 8.4 57     0 24.1 100.49     Mainly Clear
22:00 14.9 8.1 64     0 24.1 100.51     Clear
23:00 13.3 7.8 69     0 24.1 100.51     Clear

Notes on Data Quality.

Legend

  • E = Estimated
  • M = Missing
  • NA = Not Available*
  • [empty] = Indicates an unobserved value
Date modified: